Tracking 30970 objects as of 3-Jul-2025
HD Live streaming from Space Station
objects crossing your sky now

STARLINK-5321

Track STARLINK-5321 now!
10-day predictions
STARLINK-5321 is classified as:


NORAD ID: 55302
Int'l Code: 2023-010AK
Perigee: 577.1 km
Apogee: 581.3 km
Inclination: 70.0 °
Period: 96.1 minutes
Semi major axis: 6950 km
RCS: Unknown
Launch date: January 19, 2023
Source: United States (US)
Launch site: AIR FORCE WESTERN TEST RANGE (AFWTR)
Your satellite tracking list
ONEWEB-0060
Track 1 satellite(s)




NASA's NSSDC Master Catalog

Two Line Element Set (TLE):
1 55302U 23010AK  25183.68847771 -.00000727  00000-0 -53165-4 0  9990
2 55302  70.0004 294.7047 0003059 266.5800  93.5009 14.98328557135822
Source of the keplerian elements: AFSPC